Location: Unspecified
(38.9820°N, 94.4650°W)
Time: 07:12:33
(UTC-05:00)

CZ-3 Stage 3 - Visible Passes

Search period start: 30 October 2014 00:00
Search period end: 08 November 2014 23:00
Orbit: 417 x 34819 km, 30.9° (Epoch: 29 October)

Date Brightness Start Highest point End Pass type
(mag) Time Alt. Az. Time Alt. Az. Time Alt. Az.
30 Oct 5.9 00:00:00 17° SSW 07:38:45 67° SSW 07:47:31 10° ESE visible
30 Oct 7.8 20:21:12 10° SE 03:38:28 62° SSE 04:11:31 10° E visible
31 Oct 8.5 20:40:38 10° ESE 23:23:00 27° ESE 00:22:18 10° E visible
01 Nov 5.8 23:12:39 10° SSW 06:35:02 66° SSW 06:43:38 10° ESE visible
02 Nov 7.7 19:08:59 10° SSE 02:35:30 64° SSE 03:07:45 10° E visible
03 Nov 8.4 19:24:06 10° ESE 22:18:39 29° ESE 23:19:36 10° E visible
04 Nov 5.8 22:07:48 10° SSW 06:31:10 65° SSW 06:39:38 10° ESE visible
05 Nov 7.7 18:57:16 10° SSE 02:32:23 65° SSE 03:03:50 10° E visible
06 Nov 8.4 19:07:48 10° ESE 22:14:10 31° ESE 23:16:36 10° E visible
07 Nov 5.7 22:02:53 10° SSW 06:27:11 64° SSW 06:35:31 10° ESE visible
08 Nov 9.3 18:46:03 10° SSE 23:00:00 43° S 23:00:00 43° S visible
